Location: Lake Hudson State Recreational Area
(41.8372°N, 84.2445°W)
Time: 22:36:58
(UTC-05:00)

Tiangong 2 - Visible Passes

Search period start: 18 February 2018 00:00
Search period end: 28 February 2018 00:00
Orbit: 384 x 388 km, 42.8° (Epoch: 18 February)

Date Brightness Start Highest point End Pass type
(mag) Time Alt. Az. Time Alt. Az. Time Alt. Az.
18 Feb 1.1 18:42:42 10° W 18:45:53 72° N 18:49:03 10° E visible
18 Feb 3.0 20:19:32 10° W 20:21:24 30° W 20:21:24 30° W visible
19 Feb 1.1 19:20:34 10° W 19:23:45 78° SSW 19:25:22 26° ESE visible
20 Feb 2.3 19:58:31 10° W 20:01:26 33° SSW 20:01:41 33° SSW visible
21 Feb 1.7 18:59:28 10° W 19:02:34 53° SSW 19:05:40 10° ESE visible
21 Feb 4.2 20:37:31 10° WSW 20:38:05 11° SW 20:38:05 11° SW visible
22 Feb 3.4 19:37:41 10° W 19:40:07 20° SSW 19:42:19 11° SSE visible
24 Feb 4.1 19:17:26 10° WSW 19:18:42 12° SW 19:19:58 10° SSW visible
